TimeEDT,TemperatureF,Dew PointF,Humidity,Sea Level PressureIn,VisibilityMPH,Wind Direction,Wind SpeedMPH,Gust SpeedMPH,PrecipitationIn,Events,Conditions,WindDirDegrees,DateUTC
12:00 AM,68.0,68.0,100,30.16,10.0,Calm,Calm,-,N/A,,Clear,0,2013-05-31 04:00:00
12:20 AM,69.8,68.0,94,30.16,10.0,Calm,Calm,-,N/A,,Clear,0,2013-05-31 04:20:00
12:40 AM,64.4,64.4,100,30.16,7.0,Calm,Calm,-,N/A,,Clear,0,2013-05-31 04:40:00
1:00 AM,66.2,66.2,100,30.16,10.0,Calm,Calm,-,N/A,,Clear,0,2013-05-31 05:00:00
1:20 AM,66.2,66.2,100,30.16,5.0,Calm,Calm,-,N/A,,Clear,0,2013-05-31 05:20:00
1:40 AM,66.2,66.2,100,30.16,10.0,Calm,Calm,-,N/A,,Clear,0,2013-05-31 05:40:00
2:00 AM,62.6,62.6,100,30.16,7.0,Calm,Calm,-,N/A,,Clear,0,2013-05-31 06:00:00
2:20 AM,64.4,64.4,100,30.16,10.0,Calm,Calm,-,N/A,,Clear,0,2013-05-31 06:20:00
2:40 AM,64.4,64.4,100,30.15,10.0,South,3.5,-,N/A,,Clear,170,2013-05-31 06:40:00
3:00 AM,66.2,66.2,100,30.15,10.0,Calm,Calm,-,N/A,,Clear,0,2013-05-31 07:00:00
3:20 AM,64.4,64.4,100,30.16,10.0,Calm,Calm,-,N/A,,Clear,0,2013-05-31 07:20:00
3:40 AM,62.6,62.6,100,30.16,7.0,South,3.5,-,N/A,,Clear,170,2013-05-31 07:40:00
4:00 AM,64.4,64.4,100,30.16,10.0,SSE,3.5,-,N/A,,Clear,150,2013-05-31 08:00:00
4:20 AM,64.4,64.4,100,30.16,10.0,South,4.6,-,N/A,,Clear,170,2013-05-31 08:20:00
4:40 AM,64.4,64.4,100,30.16,10.0,SSE,4.6,-,N/A,,Clear,160,2013-05-31 08:40:00
5:00 AM,64.4,64.4,100,30.17,10.0,South,3.5,-,N/A,,Clear,180,2013-05-31 09:00:00
5:20 AM,62.6,62.6,100,30.17,7.0,South,4.6,-,N/A,,Clear,180,2013-05-31 09:20:00
5:40 AM,62.6,62.6,100,30.17,7.0,SSE,4.6,-,N/A,,Clear,160,2013-05-31 09:40:00
6:00 AM,62.6,62.6,100,30.17,5.0,Calm,Calm,-,N/A,,Clear,0,2013-05-31 10:00:00
6:20 AM,64.4,64.4,100,30.17,7.0,Calm,Calm,-,N/A,,Clear,0,2013-05-31 10:20:00
6:40 AM,62.6,62.6,100,30.17,5.0,SSW,3.5,-,N/A,,Clear,210,2013-05-31 10:40:00
6:45 AM,64.4,64.4,100,30.18,5.0,South,3.5,-,N/A,,Clear,190,2013-05-31 10:45:00
6:50 AM,64.4,64.4,100,30.18,10.0,Calm,Calm,-,N/A,,Clear,0,2013-05-31 10:50:00
7:50 AM,71.6,68.0,88,30.18,10.0,South,3.5,-,N/A,,Clear,190,2013-05-31 11:50:00
8:55 AM,77.0,68.0,74,30.18,10.0,SSW,4.6,-,N/A,,Clear,200,2013-05-31 12:55:00
9:50 AM,80.6,66.2,61,30.18,10.0,WSW,6.9,-,N/A,,Clear,240,2013-05-31 13:50:00
10:45 AM,84.2,68.0,58,30.16,10.0,WSW,6.9,-,N/A,,Clear,240,2013-05-31 14:45:00
11:45 AM,84.2,64.4,51,30.15,10.0,SSW,6.9,-,N/A,,Clear,210,2013-05-31 15:45:00
12:45 PM,87.8,66.2,49,30.13,10.0,SW,8.1,-,N/A,,Clear,220,2013-05-31 16:45:00
1:50 PM,89.6,64.4,43,30.12,10.0,SSW,10.4,-,N/A,,Clear,210,2013-05-31 17:50:00
2:50 PM,89.6,64.4,43,30.10,10.0,SW,12.7,17.3,N/A,,Haze,230,2013-05-31 18:50:00
3:50 PM,89.6,64.4,43,30.09,10.0,SSW,12.7,-,N/A,,Clear,210,2013-05-31 19:50:00
4:50 PM,89.6,62.6,40,30.07,10.0,SSW,9.2,17.3,N/A,,Clear,210,2013-05-31 20:50:00
5:50 PM,89.6,62.6,40,30.05,10.0,SSW,10.4,-,N/A,,Clear,210,2013-05-31 21:50:00
6:50 PM,87.8,64.4,46,30.05,10.0,SSW,10.4,-,N/A,,Clear,210,2013-05-31 22:50:00
9:05 PM,78.8,64.4,61,30.06,10.0,South,6.9,-,N/A,,Clear,180,2013-06-01 01:05:00
9:25 PM,78.8,62.6,57,30.06,10.0,South,6.9,-,N/A,,Clear,180,2013-06-01 01:25:00
9:45 PM,78.8,62.6,57,30.06,10.0,South,6.9,-,N/A,,Clear,180,2013-06-01 01:45:00
10:05 PM,77.0,62.6,61,30.06,10.0,South,6.9,-,N/A,,Clear,180,2013-06-01 02:05:00
10:25 PM,77.0,62.6,61,30.06,10.0,South,8.1,-,N/A,,Clear,180,2013-06-01 02:25:00
10:45 PM,77.0,62.6,61,30.07,10.0,South,5.8,-,N/A,,Clear,190,2013-06-01 02:45:00
11:05 PM,73.4,62.6,69,30.07,10.0,SSW,4.6,-,N/A,,Clear,210,2013-06-01 03:05:00
11:25 PM,71.6,62.6,73,30.07,10.0,SSW,5.8,-,N/A,,Clear,200,2013-06-01 03:25:00
11:45 PM,71.6,64.4,78,30.07,10.0,SSW,6.9,-,N/A,,Clear,200,2013-06-01 03:45:00